When you browse on this site, cookies collect data to enhance your experience and personalize the content and advertising you see.
Visit our Privacy Policy to learn more. By continuing to use the site, you agree to this use of cookies and data.
  • In Hungary
  • List of Countries
  • For 7 days
  • Water Temperature
  • Weather Map
  • News
  • Weather Widgets
  • user-avatar
    Login

    Hourly Weather Istok

    Today, 19 January, Sunday

    Time Temperature Precipitation Wind Pressure Humidity
    00:00 -7°C° 0 mm 2 mps 737 mmHg 91%
    01:00 -8°C° 0 mm 2 mps 738 mmHg 93%
    02:00 -8°C° 0 mm 1 mps 738 mmHg 93%
    03:00 -9°C° 0 mm 1 mps 739 mmHg 93%
    04:00 -10°C° 0 mm 1 mps 740 mmHg 95%
    05:00 -10°C° 0 mm 1 mps 740 mmHg 95%
    06:00 -10°C° 0 mm 1 mps 740 mmHg 95%
    07:00 -11°C° 0 mm 1 mps 740 mmHg 95%
    08:00 -11°C° 0 mm 1 mps 740 mmHg 93%
    09:00 -10°C° 0 mm 1 mps 740 mmHg 91%
    10:00 -10°C° 0 mm 1 mps 741 mmHg 89%
    11:00 -9°C° 0 mm 1 mps 741 mmHg 87%
    12:00 -8°C° 0 mm 1 mps 740 mmHg 85%
    13:00 -7°C° 0 mm 1 mps 740 mmHg 83%
    14:00 -7°C° 0 mm 1 mps 740 mmHg 87%
    15:00 -7°C° 0 mm 1 mps 740 mmHg 90%
    16:00 -7°C° 0 mm 1 mps 740 mmHg 94%
    17:00 -8°C° 0.3 mm 2 mps 739 mmHg 94%
    18:00 -8°C° 0.3 mm 2 mps 739 mmHg 95%
    19:00 -7°C° 0.3 mm 2 mps 738 mmHg 95%
    20:00 -7°C° 0.4 mm 2 mps 738 mmHg 95%
    21:00 -7°C° 0.4 mm 2 mps 738 mmHg 95%
    22:00 -7°C° 0.4 mm 2 mps 737 mmHg 95%
    23:00 -6°C° 0.3 mm 2 mps 737 mmHg 95%

    Tomorrow, 20 January, Monday

    Time Temperature Precipitation Wind Pressure Humidity
    00:00 -6°C° 0.3 mm 2 mps 736 mmHg 96%
    01:00 -6°C° 0.3 mm 2 mps 736 mmHg 96%
    02:00 -6°C° 0.3 mm 2 mps 735 mmHg 96%
    03:00 -6°C° 0.3 mm 2 mps 735 mmHg 96%
    04:00 -5°C° 0.3 mm 2 mps 735 mmHg 96%
    05:00 -4°C° 0.3 mm 1 mps 735 mmHg 96%
    06:00 -4°C° 0.3 mm 1 mps 734 mmHg 97%
    07:00 -4°C° 0.3 mm 1 mps 734 mmHg 97%
    08:00 -4°C° 0.3 mm 1 mps 734 mmHg 96%
    09:00 -4°C° 0.3 mm 1 mps 734 mmHg 96%
    10:00 -3°C° 0.3 mm 1 mps 734 mmHg 95%
    11:00 -6°C° 0.2 mm 2 mps 733 mmHg 94%
    12:00 -6°C° 0.2 mm 2 mps 733 mmHg 93%
    13:00 -8°C° 0.2 mm 3 mps 733 mmHg 93%
    14:00 -8°C° 0.1 mm 2 mps 733 mmHg 93%
    15:00 -9°C° 0.1 mm 2 mps 734 mmHg 94%
    16:00 -10°C° 0.1 mm 2 mps 734 mmHg 94%
    17:00 -12°C° 0 mm 2 mps 734 mmHg 95%
    18:00 -13°C° 0 mm 2 mps 734 mmHg 96%
    19:00 -12°C° 0 mm 1 mps 734 mmHg 97%
    20:00 -13°C° 0 mm 1 mps 734 mmHg 97%
    21:00 -14°C° 0 mm 1 mps 734 mmHg 97%
    22:00 -14°C° 0 mm 1 mps 734 mmHg 97%
    23:00 -15°C° 0 mm 1 mps 734 mmHg 97%

    Day after tomorrow, 21 January, Tuesday

    Time Temperature Precipitation Wind Pressure Humidity
    00:00 -15°C° 0 mm 0 mps 734 mmHg 97%
    01:00 -15°C° 0 mm 0 mps 733 mmHg 97%
    02:00 -16°C° 0 mm 0 mps 733 mmHg 98%
    03:00 -16°C° 0 mm 1 mps 733 mmHg 98%
    04:00 -16°C° 0 mm 1 mps 733 mmHg 98%
    05:00 -16°C° 0 mm 1 mps 733 mmHg 98%
    06:00 -16°C° 0 mm 1 mps 732 mmHg 97%
    07:00 -16°C° 0 mm 1 mps 732 mmHg 97%
    08:00 -18°C° 0 mm 2 mps 732 mmHg 96%
    09:00 -17°C° 0 mm 2 mps 732 mmHg 95%
    10:00 -17°C° 0 mm 2 mps 732 mmHg 94%
    11:00 -15°C° 0 mm 2 mps 731 mmHg 93%
    12:00 -14°C° 0 mm 2 mps 731 mmHg 91%
    13:00 -13°C° 0 mm 2 mps 730 mmHg 90%
    14:00 -14°C° 0 mm 2 mps 730 mmHg 92%
    15:00 -14°C° 0 mm 2 mps 730 mmHg 93%
    16:00 -15°C° 0 mm 2 mps 729 mmHg 95%
    17:00 -15°C° 0 mm 2 mps 729 mmHg 95%
    18:00 -16°C° 0 mm 3 mps 728 mmHg 95%
    19:00 -16°C° 0 mm 3 mps 727 mmHg 95%
    20:00 -16°C° 0 mm 3 mps 727 mmHg 95%
    21:00 -15°C° 0 mm 3 mps 726 mmHg 95%
    22:00 -15°C° 0 mm 3 mps 725 mmHg 95%
    23:00 -15°C° 0 mm 3 mps 725 mmHg 94%

    22 January, Wednesday

    Time Temperature Precipitation Wind Pressure Humidity
    00:00 -14°C° 0 mm 3 mps 724 mmHg 94%
    01:00 -15°C° 0 mm 4 mps 723 mmHg 93%
    02:00 -14°C° 0 mm 4 mps 722 mmHg 91%
    03:00 -12°C° 0 mm 4 mps 721 mmHg 90%
    04:00 -12°C° 0 mm 4 mps 720 mmHg 89%
    05:00 -11°C° 0.1 mm 4 mps 719 mmHg 89%
    06:00 -11°C° 0.1 mm 4 mps 718 mmHg 90%
    07:00 -10°C° 0.1 mm 4 mps 717 mmHg 90%
    08:00 -10°C° 0.1 mm 5 mps 717 mmHg 88%
    09:00 -10°C° 0.1 mm 5 mps 716 mmHg 87%
    10:00 -8°C° 0.1 mm 5 mps 716 mmHg 85%
    11:00 -8°C° 0.1 mm 4 mps 715 mmHg 86%
    12:00 -8°C° 0.1 mm 4 mps 715 mmHg 87%
    13:00 -7°C° 0.1 mm 4 mps 714 mmHg 88%
    14:00 -7°C° 0.1 mm 4 mps 714 mmHg 88%
    15:00 -6°C° 0.1 mm 3 mps 713 mmHg 88%
    16:00 -6°C° 0.1 mm 3 mps 713 mmHg 89%
    17:00 -6°C° 0 mm 3 mps 712 mmHg 89%
    18:00 -7°C° 0 mm 3 mps 712 mmHg 89%
    19:00 -7°C° 0 mm 3 mps 712 mmHg 90%
    20:00 -6°C° 0 mm 3 mps 712 mmHg 89%
    21:00 -6°C° 0 mm 3 mps 711 mmHg 89%
    22:00 -7°C° 0 mm 4 mps 711 mmHg 89%
    23:00 -7°C° 0 mm 4 mps 711 mmHg 89%

    23 January, Thursday

    Time Temperature Precipitation Wind Pressure Humidity
    00:00 -8°C° 0 mm 4 mps 711 mmHg 89%
    01:00 -8°C° 0 mm 4 mps 711 mmHg 89%
    02:00 -9°C° 0 mm 4 mps 711 mmHg 89%
    03:00 -9°C° 0 mm 4 mps 712 mmHg 88%
    04:00 -10°C° 0 mm 4 mps 712 mmHg 87%
    05:00 -10°C° 0 mm 4 mps 713 mmHg 87%
    06:00 -11°C° 0 mm 4 mps 713 mmHg 87%
    07:00 -11°C° 0 mm 4 mps 713 mmHg 87%
    08:00 -12°C° 0 mm 5 mps 714 mmHg 86%
    09:00 -12°C° 0 mm 5 mps 715 mmHg 85%
    10:00 -12°C° 0 mm 5 mps 715 mmHg 83%
    11:00 -11°C° 0 mm 5 mps 715 mmHg 82%
    12:00 -11°C° 0 mm 5 mps 716 mmHg 80%
    13:00 -10°C° 0 mm 5 mps 716 mmHg 79%
    14:00 -10°C° 0 mm 4 mps 717 mmHg 81%
    15:00 -10°C° 0 mm 4 mps 717 mmHg 84%
    16:00 -10°C° 0 mm 3 mps 718 mmHg 86%
    17:00 -12°C° 0 mm 3 mps 718 mmHg 87%
    18:00 -12°C° 0 mm 3 mps 718 mmHg 88%
    19:00 -12°C° 0 mm 3 mps 718 mmHg 89%
    20:00 -13°C° 0 mm 3 mps 719 mmHg 90%
    21:00 -13°C° 0 mm 3 mps 719 mmHg 90%
    22:00 -13°C° 0 mm 3 mps 720 mmHg 90%
    23:00 -14°C° 0 mm 3 mps 720 mmHg 91%

    24 January, Friday

    Time Temperature Precipitation Wind Pressure Humidity
    00:00 -13°C° 0 mm 2 mps 720 mmHg 92%
    01:00 -13°C° 0 mm 2 mps 721 mmHg 92%
    02:00 -14°C° 0 mm 2 mps 721 mmHg 92%
    03:00 -14°C° 0 mm 2 mps 721 mmHg 93%
    04:00 -15°C° 0 mm 2 mps 721 mmHg 93%
    05:00 -15°C° 0 mm 2 mps 721 mmHg 93%
    06:00 -16°C° 0 mm 2 mps 721 mmHg 92%
    07:00 -16°C° 0 mm 2 mps 721 mmHg 92%
    08:00 -17°C° 0 mm 3 mps 722 mmHg 90%
    09:00 -16°C° 0 mm 3 mps 722 mmHg 87%
    10:00 -17°C° 0 mm 4 mps 722 mmHg 85%
    11:00 -16°C° 0 mm 4 mps 722 mmHg 83%
    12:00 -16°C° 0 mm 4 mps 722 mmHg 81%
    13:00 -15°C° 0 mm 4 mps 722 mmHg 80%
    14:00 -16°C° 0 mm 4 mps 722 mmHg 82%
    15:00 -16°C° 0 mm 4 mps 722 mmHg 83%
    16:00 -16°C° 0 mm 4 mps 722 mmHg 85%
    17:00 -17°C° 0 mm 4 mps 722 mmHg 86%
    18:00 -18°C° 0 mm 4 mps 722 mmHg 87%
    19:00 -18°C° 0 mm 4 mps 722 mmHg 88%
    20:00 -18°C° 0 mm 4 mps 722 mmHg 88%
    21:00 -17°C° 0 mm 3 mps 723 mmHg 89%
    22:00 -17°C° 0 mm 3 mps 723 mmHg 89%
    23:00 -17°C° 0 mm 3 mps 723 mmHg 89%
    Show more